Time,TemperatureF,DewpointF,PressureIn,WindDirection,WindDirectionDegrees,WindSpeedMPH,WindSpeedGustMPH,Humidity,HourlyPrecipIn,Conditions,Clouds,dailyrainin,SoftwareType,DateUTC
2013-04-28 00:00:00,45.2,32.6,30.21,WNW,284,0.0,0.0,61,0.00,,-RA,0.00,VWS V14.01,2013-04-28 04:00:00,
2013-04-28 00:01:00,45.2,32.2,30.21,WNW,284,0.0,0.0,60,0.00,,CLR,0.00,VWS V14.01,2013-04-28 04:01:00,
2013-04-28 00:06:00,45.1,32.5,30.21,WNW,284,0.0,0.0,61,0.00,,CLR,0.00,VWS V14.01,2013-04-28 04:06:00,
2013-04-28 00:11:00,45.0,32.4,30.21,WNW,284,0.0,0.0,61,0.00,,CLR,0.00,VWS V14.01,2013-04-28 04:11:00,
2013-04-28 00:16:00,44.9,32.3,30.22,WNW,284,0.0,0.0,61,0.00,,CLR,0.00,VWS V14.01,2013-04-28 04:16:00,
2013-04-28 00:21:00,44.7,32.1,30.22,WNW,284,0.0,0.0,61,0.00,,CLR,0.00,VWS V14.01,2013-04-28 04:21:00,
2013-04-28 00:26:00,44.6,32.4,30.22,WNW,284,0.0,1.0,62,0.00,,CLR,0.00,VWS V14.01,2013-04-28 04:26:00,
2013-04-28 00:30:00,44.5,32.3,30.21,WNW,284,0.0,1.0,62,0.00,,-RA,0.00,VWS V14.01,2013-04-28 04:30:00,
2013-04-28 00:31:00,44.5,32.3,30.21,WNW,284,0.0,0.0,62,0.00,,CLR,0.00,VWS V14.01,2013-04-28 04:31:00,
2013-04-28 00:36:00,44.4,32.2,30.21,WNW,284,0.0,0.0,62,0.00,,CLR,0.00,VWS V14.01,2013-04-28 04:36:00,
2013-04-28 00:41:00,44.3,32.1,30.21,WNW,284,0.0,0.0,62,0.00,,CLR,0.00,VWS V14.01,2013-04-28 04:41:00,
2013-04-28 00:46:00,44.2,32.4,30.21,WNW,284,0.0,0.0,63,0.00,,CLR,0.00,VWS V14.01,2013-04-28 04:46:00,
2013-04-28 00:51:00,44.1,32.3,30.21,WNW,284,0.0,0.0,63,0.00,,CLR,0.00,VWS V14.01,2013-04-28 04:51:00,
2013-04-28 00:56:00,43.9,32.1,30.21,WNW,284,0.0,0.0,63,0.00,,CLR,0.00,VWS V14.01,2013-04-28 04:56:00,
2013-04-28 01:00:00,43.7,31.9,30.21,WNW,284,0.0,0.0,63,0.00,,-RA,0.00,VWS V14.01,2013-04-28 05:00:00,
2013-04-28 01:01:00,43.7,32.0,30.21,WNW,284,0.0,0.0,63,0.00,,CLR,0.00,VWS V14.01,2013-04-28 05:01:00,
2013-04-28 01:06:00,43.5,31.8,30.21,WNW,284,0.0,0.0,63,0.00,,CLR,0.00,VWS V14.01,2013-04-28 05:06:00,
2013-04-28 01:11:00,43.3,32.0,30.21,WNW,284,0.0,0.0,64,0.00,,CLR,0.00,VWS V14.01,2013-04-28 05:11:00,
2013-04-28 01:16:00,43.2,32.2,30.21,WNW,284,0.0,0.0,65,0.00,,CLR,0.00,VWS V14.01,2013-04-28 05:16:00,
2013-04-28 01:21:00,43.0,32.1,30.21,WNW,284,0.0,0.0,65,0.00,,CLR,0.00,VWS V14.01,2013-04-28 05:21:00,
2013-04-28 01:26:00,42.9,32.3,30.21,WNW,284,0.0,0.0,66,0.00,,CLR,0.00,VWS V14.01,2013-04-28 05:26:00,
2013-04-28 01:30:00,42.7,32.2,30.21,WNW,284,0.0,0.0,66,0.00,,-RA,0.00,VWS V14.01,2013-04-28 05:30:00,
2013-04-28 01:31:00,42.7,32.2,30.21,WNW,284,0.0,0.0,66,0.00,,CLR,0.00,VWS V14.01,2013-04-28 05:31:00,
2013-04-28 01:36:00,42.4,32.2,30.21,WNW,284,0.0,0.0,67,0.00,,CLR,0.00,VWS V14.01,2013-04-28 05:36:00,
2013-04-28 01:41:00,42.2,32.8,30.21,WNW,284,0.0,0.0,69,0.00,,CLR,0.00,VWS V14.01,2013-04-28 05:41:00,
2013-04-28 01:46:00,41.9,32.5,30.21,WNW,284,0.0,0.0,69,0.00,,CLR,0.00,VWS V14.01,2013-04-28 05:46:00,
2013-04-28 01:51:00,41.8,32.8,30.21,WNW,284,0.0,0.0,70,0.00,,CLR,0.00,VWS V14.01,2013-04-28 05:51:00,
2013-04-28 01:56:00,41.6,32.6,30.21,WNW,284,0.0,0.0,70,0.00,,CLR,0.00,VWS V14.01,2013-04-28 05:56:00,
2013-04-28 02:00:00,41.5,32.8,30.21,WNW,284,0.0,0.0,71,0.00,,-RA,0.00,VWS V14.01,2013-04-28 06:00:00,
2013-04-28 02:01:00,41.4,32.7,30.21,WNW,284,0.0,0.0,71,0.00,,CLR,0.00,VWS V14.01,2013-04-28 06:01:00,
2013-04-28 02:06:00,41.1,33.1,30.21,WNW,284,0.0,0.0,73,0.00,,CLR,0.00,VWS V14.01,2013-04-28 06:06:00,
2013-04-28 02:11:00,41.0,33.0,30.20,WNW,284,0.0,0.0,73,0.00,,CLR,0.00,VWS V14.01,2013-04-28 06:11:00,
2013-04-28 02:16:00,40.8,32.8,30.21,WNW,284,0.0,0.0,73,0.00,,CLR,0.00,VWS V14.01,2013-04-28 06:16:00,
2013-04-28 02:21:00,40.7,32.7,30.21,WNW,284,0.0,0.0,73,0.00,,CLR,0.00,VWS V14.01,2013-04-28 06:21:00,
2013-04-28 02:26:00,40.5,32.5,30.20,WNW,284,0.0,0.0,73,0.00,,CLR,0.00,VWS V14.01,2013-04-28 06:26:00,
2013-04-28 02:30:00,40.3,32.7,30.20,WNW,284,0.0,0.0,74,0.00,,-RA,0.00,VWS V14.01,2013-04-28 06:30:00,
2013-04-28 02:31:00,40.3,32.3,30.21,WNW,284,0.0,0.0,73,0.00,,CLR,0.00,VWS V14.01,2013-04-28 06:31:00,
2013-04-28 02:36:00,40.1,32.5,30.21,WNW,284,0.0,0.0,74,0.00,,CLR,0.00,VWS V14.01,2013-04-28 06:36:00,
2013-04-28 02:41:00,39.9,32.6,30.20,WNW,284,0.0,0.0,75,0.00,,CLR,0.00,VWS V14.01,2013-04-28 06:41:00,
2013-04-28 02:46:00,39.9,32.6,30.20,WNW,284,0.0,0.0,75,0.00,,CLR,0.00,VWS V14.01,2013-04-28 06:46:00,
2013-04-28 02:52:00,39.8,32.5,30.20,WNW,284,0.0,0.0,75,0.00,,CLR,0.00,VWS V14.01,2013-04-28 06:52:00,
2013-04-28 02:57:00,39.6,32.3,30.20,WNW,284,0.0,0.0,75,0.00,,CLR,0.00,VWS V14.01,2013-04-28 06:57:00,
2013-04-28 03:00:00,39.6,32.3,30.20,WNW,284,0.0,0.0,75,0.00,,-RA,0.00,VWS V14.01,2013-04-28 07:00:00,
2013-04-28 03:02:00,39.5,31.9,30.20,WNW,284,0.0,0.0,74,0.00,,CLR,0.00,VWS V14.01,2013-04-28 07:02:00,
2013-04-28 03:07:00,39.4,32.2,30.20,WNW,284,0.0,0.0,75,0.00,,CLR,0.00,VWS V14.01,2013-04-28 07:07:00,
2013-04-28 03:12:00,39.3,31.7,30.20,WNW,284,0.0,0.0,74,0.00,,CLR,0.00,VWS V14.01,2013-04-28 07:12:00,
2013-04-28 03:17:00,39.1,31.5,30.20,WNW,284,0.0,0.0,74,0.00,,CLR,0.00,VWS V14.01,2013-04-28 07:17:00,
2013-04-28 03:22:00,39.0,31.4,30.20,WNW,284,0.0,0.0,74,0.00,,CLR,0.00,VWS V14.01,2013-04-28 07:22:00,
2013-04-28 03:27:00,39.0,31.4,30.20,WNW,284,0.0,0.0,74,0.00,,CLR,0.00,VWS V14.01,2013-04-28 07:27:00,
2013-04-28 03:30:00,38.9,31.3,30.20,WNW,284,0.0,0.0,74,0.00,,-RA,0.00,VWS V14.01,2013-04-28 07:30:00,
2013-04-28 03:32:00,38.9,31.0,30.20,WNW,284,0.0,0.0,73,0.00,,CLR,0.00,VWS V14.01,2013-04-28 07:32:00,
2013-04-28 03:37:00,38.9,31.0,30.20,WNW,284,0.0,0.0,73,0.00,,CLR,0.00,VWS V14.01,2013-04-28 07:37:00,
2013-04-28 03:42:00,38.8,31.2,30.20,WNW,284,0.0,0.0,74,0.00,,CLR,0.00,VWS V14.01,2013-04-28 07:42:00,
2013-04-28 03:47:00,38.7,30.8,30.19,WNW,284,0.0,0.0,73,0.00,,CLR,0.00,VWS V14.01,2013-04-28 07:47:00,
2013-04-28 03:52:00,38.7,31.1,30.20,WNW,284,0.0,0.0,74,0.00,,CLR,0.00,VWS V14.01,2013-04-28 07:52:00,
2013-04-28 03:57:00,38.7,31.5,30.20,WNW,284,0.0,0.0,75,0.00,,CLR,0.00,VWS V14.01,2013-04-28 07:57:00,
2013-04-28 04:00:00,38.7,31.5,30.20,WNW,284,0.0,0.0,75,0.00,,-RA,0.00,VWS V14.01,2013-04-28 08:00:00,
2013-04-28 04:02:00,38.6,31.0,30.20,WNW,284,0.0,0.0,74,0.00,,CLR,0.00,VWS V14.01,2013-04-28 08:02:00,
2013-04-28 04:07:00,38.6,31.0,30.20,WNW,284,0.0,0.0,74,0.00,,CLR,0.00,VWS V14.01,2013-04-28 08:07:00,
2013-04-28 04:12:00,38.5,31.0,30.20,WNW,284,0.0,0.0,74,0.00,,CLR,0.00,VWS V14.01,2013-04-28 08:12:00,
2013-04-28 04:17:00,38.4,31.2,30.20,WNW,284,0.0,0.0,75,0.00,,CLR,0.00,VWS V14.01,2013-04-28 08:17:00,
2013-04-28 04:22:00,38.3,31.1,30.20,WNW,284,0.0,0.0,75,0.00,,CLR,0.00,VWS V14.01,2013-04-28 08:22:00,
2013-04-28 04:27:00,38.2,31.3,30.20,WNW,284,0.0,0.0,76,0.00,,CLR,0.00,VWS V14.01,2013-04-28 08:27:00,
2013-04-28 04:30:00,38.1,31.2,30.20,WNW,284,0.0,0.0,76,0.00,,-RA,0.00,VWS V14.01,2013-04-28 08:30:00,
2013-04-28 04:32:00,38.1,31.2,30.20,WNW,284,0.0,0.0,76,0.00,,CLR,0.00,VWS V14.01,2013-04-28 08:32:00,
2013-04-28 04:37:00,38.0,31.4,30.20,WNW,284,0.0,0.0,77,0.00,,CLR,0.00,VWS V14.01,2013-04-28 08:37:00,
2013-04-28 04:42:00,38.0,31.4,30.20,WNW,284,0.0,0.0,77,0.00,,CLR,0.00,VWS V14.01,2013-04-28 08:42:00,
2013-04-28 04:47:00,37.9,31.7,30.20,WNW,284,0.0,0.0,78,0.00,,CLR,0.00,VWS V14.01,2013-04-28 08:47:00,
2013-04-28 04:52:00,37.8,31.6,30.20,WNW,284,0.0,0.0,78,0.00,,CLR,0.00,VWS V14.01,2013-04-28 08:52:00,
2013-04-28 04:57:00,37.7,31.8,30.20,WNW,284,0.0,0.0,79,0.00,,CLR,0.00,VWS V14.01,2013-04-28 08:57:00,
2013-04-28 05:00:00,37.7,31.8,30.20,WNW,284,0.0,0.0,79,0.00,,-RA,0.00,VWS V14.01,2013-04-28 09:00:00,
2013-04-28 05:02:00,37.7,31.8,30.21,WNW,284,0.0,0.0,79,0.00,,CLR,0.00,VWS V14.01,2013-04-28 09:02:00,
2013-04-28 05:07:00,37.6,32.0,30.21,WNW,284,0.0,0.0,80,0.00,,CLR,0.00,VWS V14.01,2013-04-28 09:07:00,
2013-04-28 05:12:00,37.5,31.9,30.20,WNW,284,0.0,0.0,80,0.00,,CLR,0.00,VWS V14.01,2013-04-28 09:12:00,
2013-04-28 05:17:00,37.4,31.8,30.20,WNW,284,0.0,0.0,80,0.00,,CLR,0.00,VWS V14.01,2013-04-28 09:17:00,
2013-04-28 05:22:00,37.4,31.8,30.21,WNW,284,0.0,0.0,80,0.00,,CLR,0.00,VWS V14.01,2013-04-28 09:22:00,
2013-04-28 05:27:00,37.2,31.6,30.21,WNW,284,0.0,0.0,80,0.00,,CLR,0.00,VWS V14.01,2013-04-28 09:27:00,
2013-04-28 05:30:00,37.2,31.9,30.21,WNW,284,0.0,0.0,81,0.00,,-RA,0.00,VWS V14.01,2013-04-28 09:30:00,
2013-04-28 05:32:00,37.1,31.8,30.20,WNW,284,0.0,0.0,81,0.00,,CLR,0.00,VWS V14.01,2013-04-28 09:32:00,
2013-04-28 05:37:00,37.1,32.1,30.21,WNW,284,0.0,0.0,82,0.00,,CLR,0.00,VWS V14.01,2013-04-28 09:37:00,
2013-04-28 05:42:00,37.1,32.1,30.20,WNW,284,0.0,0.0,82,0.00,,CLR,0.00,VWS V14.01,2013-04-28 09:42:00,
2013-04-28 05:47:00,37.0,32.0,30.21,WNW,284,0.0,0.0,82,0.00,,CLR,0.00,VWS V14.01,2013-04-28 09:47:00,
2013-04-28 05:52:00,36.9,31.9,30.21,WNW,284,0.0,0.0,82,0.00,,CLR,0.00,VWS V14.01,2013-04-28 09:52:00,
2013-04-28 05:57:00,36.8,32.1,30.21,WNW,284,0.0,0.0,83,0.00,,CLR,0.00,VWS V14.01,2013-04-28 09:57:00,
2013-04-28 06:00:00,36.8,31.8,30.21,WNW,284,0.0,0.0,82,0.00,,-RA,0.00,VWS V14.01,2013-04-28 10:00:00,
2013-04-28 06:02:00,36.8,32.1,30.21,WNW,284,0.0,0.0,83,0.00,,CLR,0.00,VWS V14.01,2013-04-28 10:02:00,
2013-04-28 06:07:00,36.7,32.0,30.21,WNW,284,0.0,0.0,83,0.00,,CLR,0.00,VWS V14.01,2013-04-28 10:07:00,
2013-04-28 06:12:00,36.8,32.1,30.21,WNW,284,0.0,0.0,83,0.00,,CLR,0.00,VWS V14.01,2013-04-28 10:12:00,
2013-04-28 06:17:00,37.0,32.3,30.21,WNW,284,0.0,0.0,83,0.00,,CLR,0.00,VWS V14.01,2013-04-28 10:17:00,
2013-04-28 06:23:00,37.1,32.4,30.21,WNW,284,0.0,0.0,83,0.00,,CLR,0.00,VWS V14.01,2013-04-28 10:23:00,
2013-04-28 06:28:00,37.2,32.5,30.21,WNW,284,0.0,0.0,83,0.00,,CLR,0.00,VWS V14.01,2013-04-28 10:28:00,
2013-04-28 06:30:00,37.3,32.6,30.21,WNW,284,0.0,0.0,83,0.00,,-RA,0.00,VWS V14.01,2013-04-28 10:30:00,
2013-04-28 06:33:00,37.4,32.7,30.21,WNW,284,0.0,0.0,83,0.00,,CLR,0.00,VWS V14.01,2013-04-28 10:33:00,
2013-04-28 06:38:00,37.6,32.9,30.21,WNW,284,0.0,0.0,83,0.00,,CLR,0.00,VWS V14.01,2013-04-28 10:38:00,
2013-04-28 06:43:00,37.9,33.5,30.21,WNW,284,0.0,0.0,84,0.00,,CLR,0.00,VWS V14.01,2013-04-28 10:43:00,
2013-04-28 06:48:00,38.4,34.0,30.21,WNW,284,0.0,0.0,84,0.00,,CLR,0.00,VWS V14.01,2013-04-28 10:48:00,
2013-04-28 06:53:00,38.9,34.5,30.21,WNW,284,0.0,0.0,84,0.00,,CLR,0.00,VWS V14.01,2013-04-28 10:53:00,
2013-04-28 06:58:00,39.3,34.9,30.22,WNW,284,0.0,0.0,84,0.00,,CLR,0.00,VWS V14.01,2013-04-28 10:58:00,
2013-04-28 07:00:00,39.4,34.7,30.22,WNW,284,0.0,0.0,83,0.00,,-RA,0.00,VWS V14.01,2013-04-28 11:00:00,
2013-04-28 07:03:00,39.6,34.9,30.22,WNW,284,0.0,0.0,83,0.00,,CLR,0.00,VWS V14.01,2013-04-28 11:03:00,
2013-04-28 07:08:00,40.0,35.0,30.22,WNW,284,0.0,0.0,82,0.00,,CLR,0.00,VWS V14.01,2013-04-28 11:08:00,
2013-04-28 07:13:00,40.4,35.0,30.22,WNW,284,0.0,0.0,81,0.00,,CLR,0.00,VWS V14.01,2013-04-28 11:13:00,
2013-04-28 07:18:00,40.7,34.7,30.22,WNW,284,0.0,0.0,79,0.00,,CLR,0.00,VWS V14.01,2013-04-28 11:18:00,
2013-04-28 07:23:00,41.2,34.5,30.22,WNW,284,0.0,0.0,77,0.00,,CLR,0.00,VWS V14.01,2013-04-28 11:23:00,
2013-04-28 07:28:00,41.6,34.9,30.23,WNW,284,0.0,0.0,77,0.00,,CLR,0.00,VWS V14.01,2013-04-28 11:28:00,
2013-04-28 07:30:00,41.7,35.0,30.22,WNW,284,0.0,0.0,77,0.00,,-RA,0.00,VWS V14.01,2013-04-28 11:30:00,
2013-04-28 07:33:00,42.0,35.3,30.22,WNW,284,0.0,0.0,77,0.00,,CLR,0.00,VWS V14.01,2013-04-28 11:33:00,
2013-04-28 07:38:00,42.5,35.8,30.23,WNW,284,0.0,0.0,77,0.00,,CLR,0.00,VWS V14.01,2013-04-28 11:38:00,
2013-04-28 07:43:00,43.0,36.0,30.23,WNW,284,0.0,1.0,76,0.00,,CLR,0.00,VWS V14.01,2013-04-28 11:43:00,
2013-04-28 07:48:00,43.5,35.8,30.23,WNW,284,0.0,1.0,74,0.00,,CLR,0.00,VWS V14.01,2013-04-28 11:48:00,
2013-04-28 07:53:00,43.9,35.8,30.23,WNW,284,0.0,2.0,73,0.00,,CLR,0.00,VWS V14.01,2013-04-28 11:53:00,
2013-04-28 07:58:00,44.5,35.3,30.23,WNW,284,0.0,2.0,70,0.00,,CLR,0.00,VWS V14.01,2013-04-28 11:58:00,
2013-04-28 08:00:00,44.7,35.5,30.23,WNW,284,0.0,2.0,70,0.00,,-RA,0.00,VWS V14.01,2013-04-28 12:00:00,
2013-04-28 08:03:00,45.2,36.0,30.23,WNW,284,0.0,2.0,70,0.00,,CLR,0.00,VWS V14.01,2013-04-28 12:03:00,
2013-04-28 08:08:00,45.7,36.1,30.23,WNW,284,0.0,2.0,69,0.00,,CLR,0.00,VWS V14.01,2013-04-28 12:08:00,
2013-04-28 08:13:00,46.2,36.2,30.23,WNW,284,0.0,2.0,68,0.00,,CLR,0.00,VWS V14.01,2013-04-28 12:13:00,
2013-04-28 08:18:00,46.7,36.7,30.23,WNW,284,0.0,2.0,68,0.00,,CLR,0.00,VWS V14.01,2013-04-28 12:18:00,
2013-04-28 08:23:00,47.3,36.9,30.23,WNW,284,0.0,2.0,67,0.00,,CLR,0.00,VWS V14.01,2013-04-28 12:23:00,
2013-04-28 08:28:00,47.7,37.3,30.23,WNW,284,0.0,2.0,67,0.00,,CLR,0.00,VWS V14.01,2013-04-28 12:28:00,
2013-04-28 08:30:00,47.9,37.1,30.23,WNW,284,0.0,2.0,66,0.00,,-RA,0.00,VWS V14.01,2013-04-28 12:30:00,
2013-04-28 08:33:00,48.2,37.4,30.23,WNW,284,0.0,0.0,66,0.00,,CLR,0.00,VWS V14.01,2013-04-28 12:33:00,
2013-04-28 08:38:00,48.7,38.2,30.23,WNW,284,0.0,0.0,67,0.00,,CLR,0.00,VWS V14.01,2013-04-28 12:38:00,
2013-04-28 08:43:00,49.5,38.2,30.23,WNW,284,0.0,0.0,65,0.00,,CLR,0.00,VWS V14.01,2013-04-28 12:43:00,
2013-04-28 08:48:00,50.2,38.1,30.23,WNW,284,0.0,0.0,63,0.00,,CLR,0.00,VWS V14.01,2013-04-28 12:48:00,
2013-04-28 08:53:00,50.8,38.3,30.23,WNW,284,0.0,0.0,62,0.00,,CLR,0.00,VWS V14.01,2013-04-28 12:53:00,
2013-04-28 08:58:00,51.8,38.8,30.23,WNW,284,0.0,0.0,61,0.00,,CLR,0.00,VWS V14.01,2013-04-28 12:58:00,
2013-04-28 09:00:00,52.1,39.1,30.23,WNW,284,0.0,0.0,61,0.00,,-RA,0.00,VWS V14.01,2013-04-28 13:00:00,
2013-04-28 09:03:00,52.6,39.1,30.23,WNW,284,0.0,0.0,60,0.00,,CLR,0.00,VWS V14.01,2013-04-28 13:03:00,
2013-04-28 09:08:00,53.6,39.2,30.23,WNW,284,0.0,1.0,58,0.00,,CLR,0.00,VWS V14.01,2013-04-28 13:08:00,
2013-04-28 09:13:00,54.4,39.0,30.23,WNW,284,0.0,1.0,56,0.00,,CLR,0.00,VWS V14.01,2013-04-28 13:13:00,
2013-04-28 09:18:00,55.1,37.3,30.22,WNW,284,0.0,1.0,51,0.00,,CLR,0.00,VWS V14.01,2013-04-28 13:18:00,
2013-04-28 09:23:00,55.7,36.3,30.23,WNW,284,0.0,1.0,48,0.00,,CLR,0.00,VWS V14.01,2013-04-28 13:23:00,
2013-04-28 09:29:00,56.3,35.8,30.23,WNW,284,0.0,2.0,46,0.00,,CLR,0.00,VWS V14.01,2013-04-28 13:29:00,
2013-04-28 09:30:00,56.4,36.4,30.23,WNW,284,1.0,2.0,47,0.00,,-RA,0.00,VWS V14.01,2013-04-28 13:30:00,
2013-04-28 09:34:00,56.8,36.3,30.23,WNW,284,0.0,1.0,46,0.00,,CLR,0.00,VWS V14.01,2013-04-28 13:34:00,
2013-04-28 09:39:00,57.2,35.5,30.23,WNW,284,0.0,2.0,44,0.00,,CLR,0.00,VWS V14.01,2013-04-28 13:39:00,
2013-04-28 09:44:00,57.5,35.2,30.23,WNW,284,0.0,2.0,43,0.00,,CLR,0.00,VWS V14.01,2013-04-28 13:44:00,
2013-04-28 09:49:00,57.6,35.9,30.23,WNW,284,0.0,2.0,44,0.00,,CLR,0.00,VWS V14.01,2013-04-28 13:49:00,
2013-04-28 09:54:00,57.8,35.5,30.23,WNW,284,0.0,2.0,43,0.00,,CLR,0.00,VWS V14.01,2013-04-28 13:54:00,
2013-04-28 09:59:00,57.8,37.2,30.23,WNW,284,0.0,2.0,46,0.00,,CLR,0.00,VWS V14.01,2013-04-28 13:59:00,
2013-04-28 10:00:00,57.8,37.2,30.23,WNW,284,0.0,2.0,46,0.00,,-RA,0.00,VWS V14.01,2013-04-28 14:00:00,
2013-04-28 10:04:00,58.1,37.5,30.23,WNW,284,0.0,1.0,46,0.00,,FEW040,0.00,VWS V14.01,2013-04-28 14:04:00,
2013-04-28 10:09:00,58.5,37.8,30.23,WNW,284,0.0,1.0,46,0.00,,FEW040,0.00,VWS V14.01,2013-04-28 14:09:00,
2013-04-28 10:14:00,59.0,37.1,30.23,WNW,284,0.0,4.0,44,0.00,,FEW040,0.00,VWS V14.01,2013-04-28 14:14:00,
2013-04-28 10:19:00,59.2,37.3,30.23,WNW,284,0.0,4.0,44,0.00,,FEW040,0.00,VWS V14.01,2013-04-28 14:19:00,
2013-04-28 10:24:00,59.5,37.0,30.23,WNW,284,0.0,4.0,43,0.00,,FEW040,0.00,VWS V14.01,2013-04-28 14:24:00,
2013-04-28 10:29:00,59.9,35.5,30.23,WNW,284,0.0,4.0,40,0.00,,FEW040,0.00,VWS V14.01,2013-04-28 14:29:00,
2013-04-28 10:30:00,60.0,36.2,30.23,WNW,284,0.0,4.0,41,0.00,,-RA,0.00,VWS V14.01,2013-04-28 14:30:00,
2013-04-28 10:34:00,60.3,35.3,30.23,WNW,284,0.0,0.0,39,0.00,,FEW040,0.00,VWS V14.01,2013-04-28 14:34:00,
2013-04-28 10:39:00,60.9,35.1,30.23,WNW,284,0.0,3.0,38,0.00,,FEW040,0.00,VWS V14.01,2013-04-28 14:39:00,
2013-04-28 10:44:00,61.4,34.9,30.22,WNW,284,0.0,3.0,37,0.00,,FEW040,0.00,VWS V14.01,2013-04-28 14:44:00,
2013-04-28 10:49:00,61.7,34.5,30.22,WNW,284,0.0,3.0,36,0.00,,FEW040,0.00,VWS V14.01,2013-04-28 14:49:00,
2013-04-28 10:54:00,61.5,33.6,30.22,WNW,284,0.0,3.0,35,0.00,,FEW040,0.00,VWS V14.01,2013-04-28 14:54:00,
2013-04-28 10:59:00,61.5,34.3,30.22,WNW,284,0.0,3.0,36,0.00,,FEW040,0.00,VWS V14.01,2013-04-28 14:59:00,
2013-04-28 11:00:00,61.5,34.3,30.22,WNW,284,0.0,3.0,36,0.00,,-RA,0.00,VWS V14.01,2013-04-28 15:00:00,
2013-04-28 11:04:00,61.9,34.7,30.22,WNW,284,0.0,1.0,36,0.00,,FEW040,0.00,VWS V14.01,2013-04-28 15:04:00,
2013-04-28 11:09:00,62.4,32.9,30.22,WNW,284,0.0,1.0,33,0.00,,FEW040,0.00,VWS V14.01,2013-04-28 15:09:00,
2013-04-28 11:14:00,62.8,33.3,30.22,WNW,284,0.0,1.0,33,0.00,,FEW040,0.00,VWS V14.01,2013-04-28 15:14:00,
2013-04-28 11:19:00,63.1,33.6,30.22,WNW,284,0.0,2.0,33,0.00,,FEW040,0.00,VWS V14.01,2013-04-28 15:19:00,
2013-04-28 11:24:00,63.4,33.0,30.21,WNW,284,2.0,2.0,32,0.00,,FEW040,0.00,VWS V14.01,2013-04-28 15:24:00,
2013-04-28 11:29:00,63.4,31.5,30.21,WNW,285,1.0,4.0,30,0.00,,FEW040,0.00,VWS V14.01,2013-04-28 15:29:00,
2013-04-28 11:30:00,63.4,31.5,30.21,WNW,284,1.0,4.0,30,0.00,,-RA,0.00,VWS V14.01,2013-04-28 15:30:00,
2013-04-28 11:34:00,63.6,33.2,30.21,WNW,284,1.0,6.0,32,0.00,,FEW056,0.00,VWS V14.01,2013-04-28 15:34:00,
2013-04-28 11:39:00,64.1,31.2,30.21,WNW,284,0.0,6.0,29,0.00,,FEW056,0.00,VWS V14.01,2013-04-28 15:39:00,
2013-04-28 11:44:00,63.9,31.0,30.21,WNW,284,0.0,6.0,29,0.00,,FEW056,0.00,VWS V14.01,2013-04-28 15:44:00,
2013-04-28 11:49:00,63.7,30.0,30.21,WNW,284,1.0,6.0,28,0.00,,FEW056,0.00,VWS V14.01,2013-04-28 15:49:00,
2013-04-28 11:54:00,63.4,29.8,30.20,WNW,284,2.0,6.0,28,0.00,,FEW056,0.00,VWS V14.01,2013-04-28 15:54:00,
2013-04-28 11:59:00,63.5,29.0,30.20,WNW,284,0.0,6.0,27,0.00,,FEW056,0.00,VWS V14.01,2013-04-28 15:59:00,
2013-04-28 12:00:00,63.5,29.8,30.20,WNW,284,1.0,6.0,28,0.00,,-RA,0.00,VWS V14.01,2013-04-28 16:00:00,
2013-04-28 12:04:00,63.7,30.0,30.20,West,279,2.0,6.0,28,0.00,,FEW050,0.00,VWS V14.01,2013-04-28 16:04:00,
2013-04-28 12:09:00,64.1,31.2,30.20,West,279,1.0,6.0,29,0.00,,FEW050,0.00,VWS V14.01,2013-04-28 16:09:00,
2013-04-28 12:14:00,64.8,31.8,30.20,West,279,0.0,6.0,29,0.00,,FEW050,0.00,VWS V14.01,2013-04-28 16:14:00,
2013-04-28 12:19:00,65.3,30.5,30.20,West,279,0.0,6.0,27,0.00,,FEW050,0.00,VWS V14.01,2013-04-28 16:19:00,
2013-04-28 12:24:00,65.7,30.8,30.19,West,279,0.0,6.0,27,0.00,,FEW050,0.00,VWS V14.01,2013-04-28 16:24:00,
2013-04-28 12:29:00,66.2,31.3,30.19,West,279,1.0,6.0,27,0.00,,FEW050,0.00,VWS V14.01,2013-04-28 16:29:00,
2013-04-28 12:30:00,66.2,31.3,30.19,West,279,0.0,6.0,27,0.00,,-RA,0.00,VWS V14.01,2013-04-28 16:30:00,
2013-04-28 12:34:00,66.6,32.5,30.19,West,280,1.0,3.0,28,0.00,,FEW050,0.00,VWS V14.01,2013-04-28 16:34:00,
2013-04-28 12:39:00,66.5,31.5,30.19,West,280,0.0,3.0,27,0.00,,FEW050,0.00,VWS V14.01,2013-04-28 16:39:00,
2013-04-28 12:44:00,66.6,30.7,30.19,West,280,0.0,4.0,26,0.00,,FEW050,0.00,VWS V14.01,2013-04-28 16:44:00,
2013-04-28 12:50:00,66.3,31.4,30.18,West,280,0.0,5.0,27,0.00,,FEW050,0.00,VWS V14.01,2013-04-28 16:50:00,
2013-04-28 12:55:00,66.3,31.4,30.18,West,279,1.0,5.0,27,0.00,,FEW050,0.00,VWS V14.01,2013-04-28 16:55:00,
2013-04-28 13:00:00,66.4,32.3,30.18,West,279,0.0,6.0,28,0.00,,FEW050,0.00,VWS V14.01,2013-04-28 17:00:00,
2013-04-28 13:05:00,66.6,31.6,30.18,West,279,0.0,4.0,27,0.00,,SCT050,0.00,VWS V14.01,2013-04-28 17:05:00,
2013-04-28 13:10:00,66.8,31.8,30.18,West,278,0.0,5.0,27,0.00,,SCT050,0.00,VWS V14.01,2013-04-28 17:10:00,
2013-04-28 13:15:00,67.0,32.0,30.17,West,278,0.0,5.0,27,0.00,,SCT050,0.00,VWS V14.01,2013-04-28 17:15:00,
2013-04-28 13:20:00,66.8,31.8,30.17,West,278,1.0,5.0,27,0.00,,SCT050,0.00,VWS V14.01,2013-04-28 17:20:00,
2013-04-28 13:25:00,66.4,31.4,30.17,WNW,285,0.0,5.0,27,0.00,,SCT050,0.00,VWS V14.01,2013-04-28 17:25:00,
2013-04-28 13:30:00,66.3,31.4,30.17,WNW,285,0.0,5.0,27,0.00,,SCT050,0.00,VWS V14.01,2013-04-28 17:30:00,
2013-04-28 13:35:00,66.7,32.6,30.17,WNW,285,1.0,2.0,28,0.00,,SCT050,0.00,VWS V14.01,2013-04-28 17:35:00,
2013-04-28 13:40:00,67.1,32.0,30.17,WNW,285,0.0,5.0,27,0.00,,SCT050,0.00,VWS V14.01,2013-04-28 17:40:00,
2013-04-28 13:45:00,66.9,31.9,30.17,WNW,285,0.0,5.0,27,0.00,,SCT050,0.00,VWS V14.01,2013-04-28 17:45:00,
2013-04-28 13:50:00,66.5,31.5,30.17,WNW,285,0.0,5.0,27,0.00,,SCT050,0.00,VWS V14.01,2013-04-28 17:50:00,
2013-04-28 13:55:00,66.4,33.2,30.17,WNW,282,3.0,5.0,29,0.00,,SCT050,0.00,VWS V14.01,2013-04-28 17:55:00,
2013-04-28 14:00:00,66.9,31.9,30.16,West,275,0.0,7.0,27,0.00,,SCT050,0.00,VWS V14.01,2013-04-28 18:00:00,
2013-04-28 14:05:00,67.5,32.4,30.16,WSW,252,0.0,8.0,27,0.00,,SCT080,0.00,VWS V14.01,2013-04-28 18:05:00,
2013-04-28 14:10:00,67.6,33.4,30.16,WSW,252,1.0,8.0,28,0.00,,SCT080,0.00,VWS V14.01,2013-04-28 18:10:00,
2013-04-28 14:15:00,68.2,34.8,30.16,WSW,252,0.0,8.0,29,0.00,,SCT080,0.00,VWS V14.01,2013-04-28 18:15:00,
2013-04-28 14:20:00,68.5,33.2,30.15,WSW,252,0.0,8.0,27,0.00,,SCT080,0.00,VWS V14.01,2013-04-28 18:20:00,
2013-04-28 14:25:00,68.6,33.3,30.16,WSW,252,0.0,8.0,27,0.00,,SCT080,0.00,VWS V14.01,2013-04-28 18:25:00,
2013-04-28 14:30:00,68.8,34.4,30.16,WSW,252,0.0,0.0,28,0.00,,SCT080,0.00,VWS V14.01,2013-04-28 18:30:00,
2013-04-28 14:35:00,69.1,33.7,30.16,WSW,252,0.0,1.0,27,0.00,,SCT080,0.00,VWS V14.01,2013-04-28 18:35:00,
2013-04-28 14:40:00,68.9,34.5,30.15,West,270,4.0,6.0,28,0.00,,SCT080,0.00,VWS V14.01,2013-04-28 18:40:00,
2013-04-28 14:45:00,68.4,33.1,30.15,West,269,2.0,6.0,27,0.00,,SCT080,0.00,VWS V14.01,2013-04-28 18:45:00,
2013-04-28 14:50:00,68.0,34.6,30.15,West,269,0.0,6.0,29,0.00,,SCT080,0.00,VWS V14.01,2013-04-28 18:50:00,
2013-04-28 14:55:00,67.9,34.5,30.15,West,269,0.0,6.0,29,0.00,,SCT080,0.00,VWS V14.01,2013-04-28 18:55:00,
2013-04-28 15:00:00,68.0,34.6,30.15,West,269,0.0,0.0,29,0.00,,SCT080,0.00,VWS V14.01,2013-04-28 19:00:00,
2013-04-28 15:05:00,68.1,35.5,30.15,West,269,0.0,2.0,30,0.00,,BKN080,0.00,VWS V14.01,2013-04-28 19:05:00,
2013-04-28 15:10:00,68.3,35.7,30.15,West,270,2.0,5.0,30,0.00,,BKN080,0.00,VWS V14.01,2013-04-28 19:10:00,
2013-04-28 15:15:00,68.3,35.7,30.15,West,269,1.0,5.0,30,0.00,,BKN080,0.00,VWS V14.01,2013-04-28 19:15:00,
2013-04-28 15:20:00,68.1,35.5,30.15,WSW,249,2.0,8.0,30,0.00,,BKN080,0.00,VWS V14.01,2013-04-28 19:20:00,
2013-04-28 15:25:00,67.8,35.3,30.14,WSW,247,2.0,8.0,30,0.00,,BKN080,0.00,VWS V14.01,2013-04-28 19:25:00,
2013-04-28 15:30:00,67.7,36.0,30.14,SW,234,1.0,4.0,31,0.00,,BKN080,0.00,VWS V14.01,2013-04-28 19:30:00,
2013-04-28 15:35:00,67.8,36.9,30.14,SW,234,0.0,7.0,32,0.00,,BKN080,0.00,VWS V14.01,2013-04-28 19:35:00,
2013-04-28 15:40:00,68.1,36.3,30.14,SW,234,2.0,7.0,31,0.00,,BKN080,0.00,VWS V14.01,2013-04-28 19:40:00,
2013-04-28 15:45:00,68.4,36.6,30.14,SW,231,4.0,8.0,31,0.00,,BKN080,0.00,VWS V14.01,2013-04-28 19:45:00,
2013-04-28 15:50:00,68.5,36.7,30.14,SW,226,2.0,10.0,31,0.00,,BKN080,0.00,VWS V14.01,2013-04-28 19:50:00,
2013-04-28 15:56:00,68.5,36.7,30.14,SW,229,2.0,10.0,31,0.00,,BKN080,0.00,VWS V14.01,2013-04-28 19:56:00,
2013-04-28 16:00:00,68.3,36.5,30.13,SW,225,1.0,10.0,31,0.00,,-RA,0.00,VWS V14.01,2013-04-28 20:00:00,
2013-04-28 16:01:00,68.4,36.6,30.14,SW,226,4.0,8.0,31,0.00,,BKN080,0.00,VWS V14.01,2013-04-28 20:01:00,
2013-04-28 16:06:00,68.2,36.4,30.13,SW,224,1.0,9.0,31,0.00,,SCT250,0.00,VWS V14.01,2013-04-28 20:06:00,
2013-04-28 16:11:00,68.0,35.4,30.13,SW,224,4.0,9.0,30,0.00,,SCT250,0.00,VWS V14.01,2013-04-28 20:11:00,
2013-04-28 16:16:00,67.7,37.6,30.13,SW,225,3.0,9.0,33,0.00,,SCT250,0.00,VWS V14.01,2013-04-28 20:16:00,
2013-04-28 16:21:00,67.5,37.4,30.13,SW,225,2.0,9.0,33,0.00,,SCT250,0.00,VWS V14.01,2013-04-28 20:21:00,
2013-04-28 16:26:00,67.5,35.8,30.13,SW,225,4.0,9.0,31,0.00,,SCT250,0.00,VWS V14.01,2013-04-28 20:26:00,
2013-04-28 16:30:00,67.3,36.5,30.13,SW,225,0.0,9.0,32,0.00,,-RA,0.00,VWS V14.01,2013-04-28 20:30:00,
2013-04-28 16:31:00,67.2,37.2,30.12,SW,226,2.0,5.0,33,0.00,,SCT250,0.00,VWS V14.01,2013-04-28 20:31:00,
2013-04-28 16:36:00,66.9,36.1,30.12,SW,226,4.0,11.0,32,0.00,,SCT250,0.00,VWS V14.01,2013-04-28 20:36:00,
2013-04-28 16:41:00,66.6,35.8,30.12,SW,226,2.0,11.0,32,0.00,,SCT250,0.00,VWS V14.01,2013-04-28 20:41:00,
2013-04-28 16:46:00,66.5,36.5,30.12,SW,226,0.0,11.0,33,0.00,,SCT250,0.00,VWS V14.01,2013-04-28 20:46:00,
2013-04-28 16:51:00,66.5,36.5,30.12,SW,226,0.0,11.0,33,0.00,,SCT250,0.00,VWS V14.01,2013-04-28 20:51:00,
2013-04-28 16:56:00,66.5,35.8,30.12,SW,226,0.0,11.0,32,0.00,,SCT250,0.00,VWS V14.01,2013-04-28 20:56:00,
2013-04-28 17:00:00,66.5,36.5,30.12,SW,226,0.0,11.0,33,0.00,,-RA,0.00,VWS V14.01,2013-04-28 21:00:00,
2013-04-28 17:01:00,66.5,35.8,30.12,SW,226,2.0,3.0,32,0.00,,SCT250,0.00,VWS V14.01,2013-04-28 21:01:00,
2013-04-28 17:06:00,66.3,36.4,30.12,WSW,241,1.0,7.0,33,0.00,,SCT250,0.00,VWS V14.01,2013-04-28 21:06:00,
2013-04-28 17:11:00,66.2,35.5,30.12,WSW,241,1.0,7.0,32,0.00,,SCT250,0.00,VWS V14.01,2013-04-28 21:11:00,
2013-04-28 17:16:00,66.0,35.3,30.12,SW,236,1.0,9.0,32,0.00,,SCT250,0.00,VWS V14.01,2013-04-28 21:16:00,
2013-04-28 17:21:00,65.7,34.3,30.12,WSW,239,0.0,9.0,31,0.00,,SCT250,0.00,VWS V14.01,2013-04-28 21:21:00,
2013-04-28 17:26:00,65.6,34.2,30.12,WSW,239,0.0,9.0,31,0.00,,SCT250,0.00,VWS V14.01,2013-04-28 21:26:00,
2013-04-28 17:30:00,65.7,34.3,30.12,WSW,239,0.0,9.0,31,0.00,,-RA,0.00,VWS V14.01,2013-04-28 21:30:00,
2013-04-28 17:31:00,65.8,34.3,30.11,WSW,239,0.0,0.0,31,0.00,,SCT250,0.00,VWS V14.01,2013-04-28 21:31:00,
2013-04-28 17:36:00,66.2,33.9,30.11,WSW,239,0.0,3.0,30,0.00,,SCT250,0.00,VWS V14.01,2013-04-28 21:36:00,
2013-04-28 17:41:00,66.9,33.6,30.11,WSW,239,0.0,3.0,29,0.00,,SCT250,0.00,VWS V14.01,2013-04-28 21:41:00,
2013-04-28 17:46:00,67.3,34.0,30.11,WSW,239,0.0,4.0,29,0.00,,SCT250,0.00,VWS V14.01,2013-04-28 21:46:00,
2013-04-28 17:51:00,67.4,32.3,30.11,WSW,238,0.0,6.0,27,0.00,,SCT250,0.00,VWS V14.01,2013-04-28 21:51:00,
2013-04-28 17:56:00,67.7,33.5,30.12,WSW,238,2.0,6.0,28,0.00,,SCT250,0.00,VWS V14.01,2013-04-28 21:56:00,
2013-04-28 18:00:00,68.0,33.7,30.11,WSW,238,2.0,6.0,28,0.00,,-RA,0.00,VWS V14.01,2013-04-28 22:00:00,
2013-04-28 18:01:00,68.0,34.6,30.12,WSW,238,2.0,2.0,29,0.00,,FEW250,0.00,VWS V14.01,2013-04-28 22:01:00,
2013-04-28 18:06:00,68.2,33.0,30.12,WSW,238,0.0,2.0,27,0.00,,FEW250,0.00,VWS V14.01,2013-04-28 22:06:00,
2013-04-28 18:11:00,68.2,33.9,30.11,WSW,238,0.0,2.0,28,0.00,,FEW250,0.00,VWS V14.01,2013-04-28 22:11:00,
2013-04-28 18:16:00,67.9,32.7,30.11,WSW,239,0.0,6.0,27,0.00,,FEW250,0.00,VWS V14.01,2013-04-28 22:16:00,
2013-04-28 18:21:00,67.6,33.4,30.11,WSW,239,0.0,6.0,28,0.00,,FEW250,0.00,VWS V14.01,2013-04-28 22:21:00,
2013-04-28 18:26:00,66.7,33.5,30.11,WSW,239,1.0,6.0,29,0.00,,FEW250,0.00,VWS V14.01,2013-04-28 22:26:00,
2013-04-28 18:30:00,66.0,32.9,30.11,WSW,239,1.0,6.0,29,0.00,,-RA,0.00,VWS V14.01,2013-04-28 22:30:00,
2013-04-28 18:31:00,65.6,32.5,30.11,WSW,239,0.0,6.0,29,0.00,,FEW250,0.00,VWS V14.01,2013-04-28 22:31:00,
2013-04-28 18:36:00,64.6,33.3,30.11,WSW,239,0.0,6.0,31,0.00,,FEW250,0.00,VWS V14.01,2013-04-28 22:36:00,
2013-04-28 18:41:00,63.9,33.5,30.11,WSW,239,0.0,6.0,32,0.00,,FEW250,0.00,VWS V14.01,2013-04-28 22:41:00,
2013-04-28 18:46:00,63.3,33.7,30.11,WSW,239,0.0,6.0,33,0.00,,FEW250,0.00,VWS V14.01,2013-04-28 22:46:00,
2013-04-28 18:51:00,62.5,33.0,30.11,WSW,239,0.0,6.0,33,0.00,,FEW250,0.00,VWS V14.01,2013-04-28 22:51:00,
2013-04-28 18:56:00,61.8,32.4,30.11,WSW,239,0.0,6.0,33,0.00,,FEW250,0.00,VWS V14.01,2013-04-28 22:56:00,
2013-04-28 19:00:00,61.3,32.7,30.11,WSW,239,0.0,6.0,34,0.00,,-RA,0.00,VWS V14.01,2013-04-28 23:00:00,
2013-04-28 19:01:00,61.1,33.3,30.11,WSW,239,0.0,0.0,35,0.00,,SCT250,0.00,VWS V14.01,2013-04-28 23:01:00,
2013-04-28 19:06:00,60.2,32.5,30.11,WSW,238,0.0,7.0,35,0.00,,SCT250,0.00,VWS V14.01,2013-04-28 23:06:00,
2013-04-28 19:11:00,59.6,33.3,30.11,WSW,238,0.0,7.0,37,0.00,,SCT250,0.00,VWS V14.01,2013-04-28 23:11:00,
2013-04-28 19:16:00,58.9,33.4,30.11,WSW,238,1.0,7.0,38,0.00,,SCT250,0.00,VWS V14.01,2013-04-28 23:16:00,
2013-04-28 19:21:00,58.2,32.7,30.12,WSW,237,0.0,10.0,38,0.00,,SCT250,0.00,VWS V14.01,2013-04-28 23:21:00,
2013-04-28 19:26:00,57.7,32.9,30.12,WSW,237,0.0,10.0,39,0.00,,SCT250,0.00,VWS V14.01,2013-04-28 23:26:00,
2013-04-28 19:30:00,57.3,32.6,30.12,WSW,237,2.0,10.0,39,0.00,,-RA,0.00,VWS V14.01,2013-04-28 23:30:00,
2013-04-28 19:31:00,57.1,33.0,30.12,WSW,237,0.0,2.0,40,0.00,,SCT250,0.00,VWS V14.01,2013-04-28 23:31:00,
2013-04-28 19:37:00,56.6,33.2,30.12,WSW,237,1.0,3.0,41,0.00,,SCT250,0.00,VWS V14.01,2013-04-28 23:37:00,
2013-04-28 19:42:00,56.2,32.8,30.12,WSW,237,0.0,4.0,41,0.00,,SCT250,0.00,VWS V14.01,2013-04-28 23:42:00,
2013-04-28 19:47:00,55.7,33.0,30.12,WSW,237,0.0,4.0,42,0.00,,SCT250,0.00,VWS V14.01,2013-04-28 23:47:00,
2013-04-28 19:52:00,55.4,33.3,30.12,WSW,237,0.0,4.0,43,0.00,,SCT250,0.00,VWS V14.01,2013-04-28 23:52:00,
2013-04-28 19:57:00,55.0,32.9,30.12,WSW,237,1.0,4.0,43,0.00,,SCT250,0.00,VWS V14.01,2013-04-28 23:57:00,
2013-04-28 20:00:00,54.8,33.3,30.13,WSW,237,0.0,4.0,44,0.00,,-RA,0.00,VWS V14.01,2013-04-29 00:00:00,
2013-04-28 20:02:00,54.6,32.6,30.12,WSW,237,0.0,4.0,43,0.00,,FEW250,0.00,VWS V14.01,2013-04-29 00:02:00,
2013-04-28 20:07:00,54.2,33.3,30.13,WSW,240,0.0,5.0,45,0.00,,FEW250,0.00,VWS V14.01,2013-04-29 00:07:00,
2013-04-28 20:12:00,54.0,33.2,30.13,WSW,242,0.0,7.0,45,0.00,,FEW250,0.00,VWS V14.01,2013-04-29 00:12:00,
2013-04-28 20:17:00,53.6,33.3,30.13,WSW,242,0.0,7.0,46,0.00,,FEW250,0.00,VWS V14.01,2013-04-29 00:17:00,
2013-04-28 20:22:00,53.3,33.6,30.14,WSW,242,0.0,7.0,47,0.00,,FEW250,0.00,VWS V14.01,2013-04-29 00:22:00,
2013-04-28 20:27:00,53.0,33.8,30.14,WSW,242,1.0,7.0,48,0.00,,FEW250,0.00,VWS V14.01,2013-04-29 00:27:00,
2013-04-28 20:30:00,52.9,33.8,30.14,WSW,242,0.0,7.0,48,0.00,,-RA,0.00,VWS V14.01,2013-04-29 00:30:00,
2013-04-28 20:32:00,52.8,33.7,30.14,WSW,242,0.0,3.0,48,0.00,,FEW250,0.00,VWS V14.01,2013-04-29 00:32:00,
2013-04-28 20:37:00,52.6,34.0,30.14,WSW,242,0.0,3.0,49,0.00,,FEW250,0.00,VWS V14.01,2013-04-29 00:37:00,
2013-04-28 20:42:00,52.3,33.7,30.14,WSW,242,0.0,4.0,49,0.00,,FEW250,0.00,VWS V14.01,2013-04-29 00:42:00,
2013-04-28 20:47:00,52.0,34.0,30.14,WSW,242,0.0,4.0,50,0.00,,FEW250,0.00,VWS V14.01,2013-04-29 00:47:00,
2013-04-28 20:52:00,51.8,34.3,30.14,WSW,242,0.0,4.0,51,0.00,,FEW250,0.00,VWS V14.01,2013-04-29 00:52:00,
2013-04-28 20:57:00,51.5,33.5,30.14,WSW,242,1.0,4.0,50,0.00,,FEW250,0.00,VWS V14.01,2013-04-29 00:57:00,
2013-04-28 21:00:00,51.4,33.4,30.14,WSW,242,0.0,6.0,50,0.00,,-RA,0.00,VWS V14.01,2013-04-29 01:00:00,
2013-04-28 21:02:00,51.3,33.3,30.14,WSW,242,2.0,3.0,50,0.00,,CLR,0.00,VWS V14.01,2013-04-29 01:02:00,
2013-04-28 21:07:00,51.1,33.6,30.14,WSW,242,0.0,3.0,51,0.00,,CLR,0.00,VWS V14.01,2013-04-29 01:07:00,
2013-04-28 21:12:00,50.9,33.4,30.14,WSW,242,2.0,3.0,51,0.00,,CLR,0.00,VWS V14.01,2013-04-29 01:12:00,
2013-04-28 21:17:00,50.8,33.3,30.14,WSW,242,0.0,3.0,51,0.00,,CLR,0.00,VWS V14.01,2013-04-29 01:17:00,
2013-04-28 21:22:00,50.5,34.0,30.14,WSW,242,0.0,4.0,53,0.00,,CLR,0.00,VWS V14.01,2013-04-29 01:22:00,
2013-04-28 21:27:00,50.3,33.8,30.14,WSW,242,0.0,4.0,53,0.00,,CLR,0.00,VWS V14.01,2013-04-29 01:27:00,
2013-04-28 21:30:00,50.2,33.7,30.14,WSW,242,0.0,4.0,53,0.00,,-RA,0.00,VWS V14.01,2013-04-29 01:30:00,
2013-04-28 21:32:00,50.0,34.0,30.14,WSW,242,0.0,2.0,54,0.00,,CLR,0.00,VWS V14.01,2013-04-29 01:32:00,
2013-04-28 21:37:00,49.8,34.3,30.14,WSW,242,0.0,2.0,55,0.00,,CLR,0.00,VWS V14.01,2013-04-29 01:37:00,
2013-04-28 21:42:00,49.6,34.1,30.15,WSW,242,0.0,3.0,55,0.00,,CLR,0.00,VWS V14.01,2013-04-29 01:42:00,
2013-04-28 21:47:00,49.4,33.9,30.14,WSW,242,0.0,3.0,55,0.00,,CLR,0.00,VWS V14.01,2013-04-29 01:47:00,
2013-04-28 21:52:00,49.2,34.2,30.14,WSW,242,0.0,3.0,56,0.00,,CLR,0.00,VWS V14.01,2013-04-29 01:52:00,
2013-04-28 21:57:00,49.0,34.0,30.14,WSW,242,0.0,3.0,56,0.00,,CLR,0.00,VWS V14.01,2013-04-29 01:57:00,
2013-04-28 22:00:00,48.9,34.3,30.14,WSW,242,0.0,3.0,57,0.00,,-RA,0.00,VWS V14.01,2013-04-29 02:00:00,
2013-04-28 22:02:00,48.7,34.2,30.14,WSW,242,0.0,0.0,57,0.00,,CLR,0.00,VWS V14.01,2013-04-29 02:02:00,
2013-04-28 22:07:00,48.4,34.3,30.14,WSW,242,0.0,1.0,58,0.00,,CLR,0.00,VWS V14.01,2013-04-29 02:07:00,
2013-04-28 22:12:00,48.2,34.1,30.14,WSW,242,0.0,1.0,58,0.00,,CLR,0.00,VWS V14.01,2013-04-29 02:12:00,
2013-04-28 22:17:00,48.0,34.4,30.14,WSW,242,0.0,1.0,59,0.00,,CLR,0.00,VWS V14.01,2013-04-29 02:17:00,
2013-04-28 22:22:00,47.8,34.2,30.14,WSW,242,0.0,1.0,59,0.00,,CLR,0.00,VWS V14.01,2013-04-29 02:22:00,
2013-04-28 22:27:00,47.6,34.4,30.15,WSW,242,0.0,1.0,60,0.00,,CLR,0.00,VWS V14.01,2013-04-29 02:27:00,
2013-04-28 22:30:00,47.5,34.3,30.14,WSW,242,0.0,1.0,60,0.00,,-RA,0.00,VWS V14.01,2013-04-29 02:30:00,
2013-04-28 22:32:00,47.4,34.2,30.14,WSW,242,0.0,0.0,60,0.00,,CLR,0.00,VWS V14.01,2013-04-29 02:32:00,
2013-04-28 22:37:00,47.2,34.0,30.15,WSW,242,0.0,2.0,60,0.00,,CLR,0.00,VWS V14.01,2013-04-29 02:37:00,
2013-04-28 22:43:00,47.0,34.3,30.14,WSW,242,0.0,2.0,61,0.00,,CLR,0.00,VWS V14.01,2013-04-29 02:43:00,
2013-04-28 22:48:00,46.9,34.2,30.14,WSW,242,0.0,2.0,61,0.00,,CLR,0.00,VWS V14.01,2013-04-29 02:48:00,
2013-04-28 22:53:00,46.7,34.0,30.14,WSW,242,0.0,2.0,61,0.00,,CLR,0.00,VWS V14.01,2013-04-29 02:53:00,
2013-04-28 22:58:00,46.6,33.9,30.14,WSW,242,0.0,2.0,61,0.00,,CLR,0.00,VWS V14.01,2013-04-29 02:58:00,
2013-04-28 23:00:00,46.5,33.8,30.14,WSW,242,0.0,2.0,61,0.00,,-RA,0.00,VWS V14.01,2013-04-29 03:00:00,
2013-04-28 23:03:00,46.4,33.7,30.14,WSW,242,0.0,0.0,61,0.00,,CLR,0.00,VWS V14.01,2013-04-29 03:03:00,
2013-04-28 23:08:00,46.3,33.6,30.14,WSW,242,0.0,0.0,61,0.00,,CLR,0.00,VWS V14.01,2013-04-29 03:08:00,
2013-04-28 23:13:00,46.1,33.8,30.14,WSW,242,0.0,0.0,62,0.00,,CLR,0.00,VWS V14.01,2013-04-29 03:13:00,
2013-04-28 23:18:00,45.9,34.0,30.14,WSW,242,0.0,0.0,63,0.00,,CLR,0.00,VWS V14.01,2013-04-29 03:18:00,
2013-04-28 23:23:00,45.8,33.9,30.14,WSW,242,0.0,0.0,63,0.00,,CLR,0.00,VWS V14.01,2013-04-29 03:23:00,
2013-04-28 23:28:00,45.6,33.8,30.14,WSW,242,1.0,1.0,63,0.00,,CLR,0.00,VWS V14.01,2013-04-29 03:28:00,
2013-04-28 23:30:00,45.6,34.1,30.14,WSW,242,0.0,1.0,64,0.00,,-RA,0.00,VWS V14.01,2013-04-29 03:30:00,
2013-04-28 23:33:00,45.5,34.0,30.15,WSW,242,0.0,0.0,64,0.00,,CLR,0.00,VWS V14.01,2013-04-29 03:33:00,
2013-04-28 23:38:00,45.5,34.0,30.15,WSW,242,0.0,0.0,64,0.00,,CLR,0.00,VWS V14.01,2013-04-29 03:38:00,
2013-04-28 23:43:00,45.5,34.4,30.15,WSW,242,0.0,0.0,65,0.00,,CLR,0.00,VWS V14.01,2013-04-29 03:43:00,
2013-04-28 23:48:00,45.5,34.4,30.14,WSW,242,0.0,0.0,65,0.00,,CLR,0.00,VWS V14.01,2013-04-29 03:48:00,
2013-04-28 23:53:00,45.4,34.3,30.15,WSW,242,0.0,1.0,65,0.00,,CLR,0.00,VWS V14.01,2013-04-29 03:53:00,
2013-04-28 23:58:00,45.4,34.3,30.15,WSW,242,0.0,1.0,65,0.00,,CLR,0.00,VWS V14.01,2013-04-29 03:58:00,